Regional Weather Roundup
Issued by NWS

Home | Current Version | Previous Version | Text Only | Print | Product List | Glossary Off
Versions: 1 2 3 4 5 6 7 8 9 10 11 12 13 14 15 16 17 18 19 20 21 22 23 24 25 26 27 28 29 30 31 32 33 34 35 36 37 38 39 40 41 42 43 44 45 46 47 48 49 50

000
ASUS45 KSLC 260510
RWRUT

UTAH REGIONAL WEATHER ROUNDUP
NATIONAL WEATHER SERVICE SALT LAKE CITY UT
1100 PM MDT SAT APR 25 2015

UTZ001>011-023>025-260600-

NORTHERN UTAH

CITY           SKY/WX    TMP DP  RH WIND       PRES   REMARKS
BRIGHAM CITY   CLOUDY    47  43  88 SW5       29.75R
HILL AFB       LGT RAIN  43  41  93 NE3       29.74R
LOGAN          CLOUDY    47  39  74 S8        29.72R
OGDEN          LGT RAIN  44  43  96 CALM      29.73R FOG
PROVO AIRPORT  CLOUDY    43  37  81 CALM      29.74S
SALT LAKE CITY LGT RAIN  44  42  93 W9        29.73R
VERNAL         RAIN      44  41  89 CALM      29.76R FOG
WENDOVER       CLOUDY    46  30  53 N16       29.79R
HEBER CITY     MIX PCPN  41  37  87 CALM      29.73S
WEST JORDAN    CLOUDY    43  43 100 SW3       29.75R

$$

UTZ012>022-026-027-260600-

SOUTHERN/CENTRAL UTAH

CITY           SKY/WX    TMP DP  RH WIND       PRES   REMARKS
BLANDING       CLOUDY    41  40  95 CALM      29.86S
BRYCE CANYON   FOG       31  29  92 CALM      29.78S VSB 1/2
CEDAR CITY     CLOUDY    40  36  86 S3        29.76R
DELTA          CLOUDY    40  39  96 NW7       29.74S
HANKSVILLE     MOCLDY    46  41  81 NE3       29.72S
MILFORD        LGT RAIN  41  19  41 N5        29.76S
MOAB/CYNLANDS  CLOUDY    48  46  93 E7        29.71F
PRICE          NOT AVBL
ST GEORGE      CLOUDY    50  41  71 CALM      29.78S
KANAB          MOCLDY    43  43 100 NW3       29.80S

$$

REGIONAL REPORTS     COLORADO/ARIZONA

CITY           SKY/WX    TMP DP  RH WIND       PRES   REMARKS
CRAIG, CO      CLOUDY    45  36  70 E3        29.78F
GRAND JUNCTION LGT RAIN  45  45 100 N3        29.74S
RIFLE          CLOUDY    45  41  86 CALM      29.77F
MONTROSE       CLOUDY    46  39  76 SE15      29.79F
CORTEZ         CLOUDY    44  39  82 S5        29.82R
PAGE, AZ       CLOUDY    49  39  68 NW6       29.76R
GRAND CANYON   LGT RAIN  38  37  97 SW14G22   29.81R WCI  30
KINGMAN        CLOUDY    46  44  93 NE9       29.78R
FLAGSTAFF      LGT RAIN  36  35  96 SW14G23   29.82R WCI  27

$$

REGIONAL REPORTS    NEVADA/IDAHO/WYOMING

CITY           SKY/WX    TMP DP  RH WIND       PRES   REMARKS
LAS VEGAS, NV  MOCLDY    55  54  96 SW6       29.73R
ELY            NOT AVBL
ELKO           CLOUDY    40  31  70 SE6       29.88R
POCATELLO, ID  CLOUDY    43  36  76 SW17      29.80R
BURLEY         CLOUDY    41  35  79 S9        29.81S
EVANSTON, WY   LGT RAIN  36  34  92 N9        29.74F VSB 3/4 WCI  29
ROCK SPRINGS   CLOUDY    41  33  73 E12       29.75F
KEMMERER       LGT RAIN  36  34  93 N7        29.75F WCI  30

$$



USA.gov is the U.S. government's official web portal to all federal, state and local government web resources and services.